This is the latest recevied weather packets stored in our database for station/object N5SRF. If no packets are shown the sender has not sent any weather packets the latest 10 day(s).
| Time | Temp. | Humidity | Pressure | Rain* | Wind** | Luminosity | Snow |
|---|---|---|---|---|---|---|---|
| 1777665524 | 14.44° C | 99% | 1015.5 hPa | 0 mm | - | 34 W/m² | - |
| 1777664606 | 14.44° C | 99% | 1015.1 hPa | 0 mm | - | 44 W/m² | - |
| 1777664001 | 14.44° C | 99% | 1014.8 hPa | 0 mm | - | 41 W/m² | - |
| 1777663698 | 14.44° C | 99% | 1015.3 hPa | 0 mm | - | 35 W/m² | - |
| 1777663092 | 14.44° C | 99% | 1014.7 hPa | 0 mm | - | 47 W/m² | - |
| 1777660965 | 14.44° C | 99% | 1013.6 hPa | 0 mm | - | 143 W/m² | - |
| 1777660661 | 14.44° C | 99% | 1013.5 hPa | 0 mm | - | 91 W/m² | - |
| 1777660358 | 14.44° C | 99% | 1013.4 hPa | 0 mm | - | 122 W/m² | - |
| 1777660054 | 15° C | 99% | 1014.2 hPa | 0 mm | - | 139 W/m² | - |
| 1777659751 | 15° C | 99% | 1013.9 hPa | 0 mm | - | 91 W/m² | - |
| 1777659448 | 15° C | 99% | 1014.3 hPa | 0 mm | - | 105 W/m² | - |
| 1777659146 | 15° C | 99% | 1014.5 hPa | 0 mm | - | 98 W/m² | - |
| 1777658843 | 15° C | 99% | 1015.1 hPa | 0 mm | - | 114 W/m² | - |
| 1777658236 | 15° C | 99% | 1015.9 hPa | 1.27 mm | - | 135 W/m² | - |
| 1777657933 | 15° C | 99% | 1016.1 hPa | 0 mm | - | 88 W/m² | - |
| 1777657024 | 15° C | 99% | 1015.8 hPa | 0 mm | - | 94 W/m² | - |
| 1777656721 | 15° C | 99% | 1015.7 hPa | 0 mm | - | 142 W/m² | - |
| 1777656417 | 15° C | 99% | 1015.6 hPa | 0 mm | - | 132 W/m² | - |
| 1777656112 | 15° C | 99% | 1015.8 hPa | 0 mm | - | 166 W/m² | - |
| 1777655505 | 15° C | 99% | 1016.5 hPa | 0 mm | - | 254 W/m² | - |
| 1777655202 | 15° C | 99% | 1016.7 hPa | 1.78 mm | - | 146 W/m² | - |
| 1777654597 | 15° C | 99% | 1017.5 hPa | 1.78 mm | - | 105 W/m² | - |
| 1777653992 | 15° C | 99% | 1017.7 hPa | 3.05 mm | - | 77 W/m² | - |
| 1777653385 | 15° C | 99% | 1018.1 hPa | 4.32 mm | - | 92 W/m² | - |
| 1777653082 | 15° C | 99% | 1017.9 hPa | 4.83 mm | - | 84 W/m² | - |
* Rain latest hour (hover to see other rain measurements)
** Current wind speed in m/s (hover to see current wind gust speed)